DBair |  Recent searches |  Recent views |  Contact us |  Sign In
DBair, not only an aviation database

Prince Abdul Majeed Airport, Al-Ula, Saudi Arabia

METAR

2015/02/28 21:00
OEAO 282100Z 03002KT CAVOK 25/04 Q1016

TAF

2015/02/18 06:00
TAF OEAO 180430Z 1806/1820 13010G20KT 7000 FEW040 SCT100 
      TEMPO 1806/1811 3500 DU/BLDU 
      BECMG 1811/1813 23010G18KT
Name:Prince Abdul Majeed Airport
City:Al-Ula
Country:Saudi Arabia
IATA/FAA:ULH
ICAO:OEAO
Latitude:26.6367180
Longitude:37.9080180
Altitude:2047 (in feet)
Timezone: 3 (hours offset from UTC)
DST:N (None)
Keywords: prince abdul majeed airport, al-ula, saudi arabia, ulh, oeao, 26.636718, 37.908018,

Map:

Full ICAO list |  Full IATA list |  Full airport list